Regional Weather Roundup
Issued by NWS

Home | Current Version | Previous Version | Graphics & Text | Print | Product List | Glossary On
Versions: 1 2 3 4 5 6 7 8 9 10 11 12 13 14 15 16 17 18 19 20 21 22 23 24 25 26 27 28 29 30 31 32 33 34 35 36 37 38 39 40 41 42 43 44 45 46 47 48 49 50
000
ASUS43 KOAX 232210
RWRNE

WEATHER ROUNDUP FOR NEBRASKA
NATIONAL WEATHER SERVICE OMAHA NE
500 PM CDT SUN APR 23 2017

NOTES: SATELLITE DATA IS BEING USED TO AUGMENT CLOUD COVER ABOVE
       12000 FEET.
       "FAIR" INDICATES FEW OR NO CLOUDS BELOW 12,000 FEET WITH NO
       SIGNIFICANT WEATHER AND/OR OBSTRUCTIONS TO VISIBILITY.

  * THESE STATIONS DO NOT REPORT WEATHER SUCH AS RAIN...SNOW OR FOG.

NEZ001>004-019>022-054>056-232300-
NEBRASKA PANHANDLE

CITY           SKY/WX    TMP DP  RH WIND       PRES   REMARKS
SCOTTSBLUFF    CLOUDY    75  31  19 S8G20     29.71F
ALLIANCE       CLOUDY    72  31  22 SW15G28   29.72F
CHADRON        CLOUDY    75  32  20 SW7       29.66F
KIMBALL        CLOUDY    67  37  33 S13G21    29.78F
SIDNEY         CLOUDY    69  42  37 S22G29    29.77F
$$

NEZ057>060-069>072-079>082-232300-
SOUTHWEST NEBRASKA

CITY           SKY/WX    TMP DP  RH WIND       PRES   REMARKS
NORTH PLATTE   PTSUNNY   69  35  28 S23G32    29.81F
IMPERIAL       CLOUDY    68  38  33 S23G33    29.82F
LEXINGTON      CLOUDY    69  22  17 S30G38    29.87F
MCCOOK         CLOUDY    70  33  25 S24G37    29.84F
OGALLALA       CLOUDY    71  37  29 S21G29    29.78F
$$

NEZ005>010-023>029-035>040-094-232300-
NORTH CENTRAL NEBRASKA

CITY           SKY/WX    TMP DP  RH WIND       PRES   REMARKS
VALENTINE      MOSUNNY   75  29  18 S28G39    29.73F
AINSWORTH      SUNNY     70  31  24 S23G32    29.77F
BROKEN BOW     CLOUDY    71  23  16 S32G40    29.85F
O`NEILL        SUNNY     72  19  13 S28G36    29.80F
ORD            CLOUDY    70  25  18 S28G41    29.85F
THEDFORD       MOSUNNY   72  33  23 S28G36    29.80F
$$

NEZ041-046>049-061>064-073>077-083>087-232300-
SOUTH CENTRAL NEBRASKA

CITY           SKY/WX    TMP DP  RH WIND       PRES   REMARKS
GRAND ISLAND   CLOUDY    71  25  17 S28G39    29.91F
AURORA         MOSUNNY   71  25  18 S21G35    29.92F
HASTINGS       CLOUDY    69  24  18 S13G28    29.94F
HEBRON         CLOUDY    70  30  22 S20G25    29.97F
HOLDREGE       CLOUDY    67  25  20 S25G36    29.90F
KEARNEY *      MOSUNNY   70  27  19 S29G36    29.90F
YORK           MOSUNNY   72  23  16 S22G28    29.95F
$$

NEZ011>018-030>034-042>045-232300-
NORTHEAST NEBRASKA

CITY           SKY/WX    TMP DP  RH WIND       PRES   REMARKS
NORFOLK        SUNNY     72  22  15 S29G36    29.88F
ALBION         SUNNY     72  21  14 SW25G36   29.88F
BLAIR          SUNNY     73  29  20 S20G25    29.95F
FREMONT        SUNNY     72  28  19 S16G25    29.95F
TEKAMAH        SUNNY     72  30  21 S25G31    29.94F
WAYNE          MOSUNNY   72  28  19 S25G37    29.89F
$$

NEZ050>053-065>068-078-088>093-232300-
SOUTHEAST NEBRASKA

CITY           SKY/WX    TMP DP  RH WIND       PRES   REMARKS
LINCOLN        SUNNY     72  30  21 S23G33    29.96F
OMAHA EPPLEY   PTSUNNY   73  26  17 S22G29    29.96F
BEATRICE       SUNNY     69  32  24 S17G23    29.98F
FALLS CITY     SUNNY     69  33  26 S14G22    30.00F
NEBRASKA CITY  SUNNY     70  14  11 S16G22    29.99F
PLATTSMOUTH    SUNNY     72  13  10 S17G24    29.98F
$$

NEZ044-045-051>053-067-232300-
OMAHA AREA

CITY           SKY/WX    TMP DP  RH WIND       PRES   REMARKS
OMAHA EPPLEY   PTSUNNY   73  26  17 S22G29    29.96F
BLAIR          SUNNY     73  29  20 S20G25    29.95F
FREMONT        SUNNY     72  28  19 S16G25    29.95F
MILLARD        SUNNY     73  33  22 S10G16    29.96F
OFFUTT AFB     SUNNY     72  29  20 SW15      29.96F
PLATTSMOUTH    SUNNY     72  13  10 S17G24    29.98F
WAHOO          FAIR      72  25  17 S17G24    29.95F
$$




USA.gov is the U.S. government's official web portal to all federal, state and local government web resources and services.